Location: Bothwell
(42.3833°S, 147.0000°E)
Time: 02:57:50
(UTC+10:00)

XW-2C - Pass Details

Date: 30 April 2024
Orbit: 436 x 449 km, 97.5° (Epoch: 22 May)

Event Time Altitude Azimuth Distance (km) Brightness Sun altitude
Rises 06:24:15 0° 6° (N) 2,440 ? -7.2°
Reaches altitude 10° 06:26:16 10° 2° (N) 1,582 ? -6.9°
Maximum altitude 06:29:38 60° 281° (W) 529 ? -6.3°
Drops below altitude 10° 06:33:04 10° 199° (SSW) 1,621 ? -5.6°
Sets 06:35:10 0° 195° (SSW) 2,508 ? -5.3°
